Kremmling, CO

11:17 PM MST on February 22, 2017 (GMT -0700)
Kremmling

Weather History for K20V - April, 2014

Change the Weather History Date:

Thursday, April 10, 2014

  Actual Average Record
Temperature  
Mean Temperature 48 °F -  
Max Temperature 60 °F - 73 °F (2012)
Min Temperature 35 °F - 12 °F (2013)
Degree Days  
Heating Degree Days 18    
Month to date heating degree days  
Cooling Degree Days 0    
Month to date cooling degree days  
Moisture  
Dew Point 21 °F    
Average Humidity 38    
Maximum Humidity 75    
Minimum Humidity 15    
Precipitation  
Precipitation 0.00 in - 0.07 in (2007)
Sea Level Pressure  
Sea Level Pressure 30.11 in    
Wind  
Wind Speed 6 mph (NW)    
Max Wind Speed 16 mph    
Max Gust Speed 25 mph    
Visibility 10 miles    
Events      
T = Trace of Precipitation, MM = Missing Value Source: NWS Daily Summary

Daily Weather History Graph

Daily Weather History Graph

Search for Another Location

Airport or City:

Trip Planner

Search our weather history database for the weather conditions in past years. The results will help you decide how hot, cold, wet, or windy it might be!

Date:

Astronomy

Apr. 10, 2014 Rise Set
Actual Time 6:35 AM MDT 7:39 PM MDT
Civil Twilight 6:07 AM MDT 8:06 PM MDT
Nautical Twilight 5:34 AM MDT 8:40 PM MDT
Astronomical Twilight 4:59 AM MDT 9:14 PM MDT
Moon 3:25 PM MDT (4/10) 3:59 AM MDT (4/10)
Length of Visible Light 13h 59m
Length of Day
13h 03m
Waxing Gibbous, 80% of the Moon is Illuminated
Apr 10
Waxing Gibbous
Apr 15
Full
Apr 22
Last Quarter
Apr 29
New
May 6
First Quarter

Hourly Weather History & Observations

Time (MDT) Temp. Windchill Dew Point Humidity Pressure Visibility Wind Dir Wind Speed Gust Speed Precip Events Conditions
12:16 AM 50.0 °F - 10.4 °F 20% 30.10 in 10.0 mi WSW 6.9 mph - N/A   Mostly Cloudy
12:35 AM 50.0 °F - 12.2 °F 22% 30.10 in 10.0 mi WNW 4.6 mph - N/A   Overcast
12:55 AM 48.2 °F - 14.0 °F 25% 30.11 in 10.0 mi NNW 8.1 mph - N/A   Mostly Cloudy
1:15 AM 50.0 °F - 12.2 °F 22% 30.11 in 10.0 mi WNW 4.6 mph - N/A   Scattered Clouds
1:36 AM 44.6 °F 42.2 °F 14.0 °F 29% 30.11 in 10.0 mi West 4.6 mph - N/A   Scattered Clouds
1:56 AM 41.0 °F 38.0 °F 14.0 °F 33% 30.10 in 10.0 mi North 4.6 mph - N/A   Scattered Clouds
2:16 AM 42.8 °F - 14.0 °F 31% 30.10 in 10.0 mi Calm Calm - N/A   Mostly Cloudy
2:36 AM 41.0 °F 38.0 °F 17.6 °F 39% 30.09 in 10.0 mi NNW 4.6 mph - N/A   Mostly Cloudy
2:56 AM 39.2 °F 37.0 °F 19.4 °F 45% 30.09 in 10.0 mi ESE 3.5 mph - N/A   Overcast
3:16 AM 37.4 °F - 21.2 °F 52% 30.09 in 10.0 mi Calm Calm - N/A   Mostly Cloudy
3:36 AM 37.4 °F - 21.2 °F 52% 30.10 in 10.0 mi Calm Calm - N/A   Mostly Cloudy
3:56 AM 37.4 °F - 23.0 °F 56% 30.09 in 10.0 mi Calm Calm - N/A   Mostly Cloudy
4:16 AM 37.4 °F 34.9 °F 23.0 °F 56% 30.09 in 10.0 mi North 3.5 mph - N/A   Mostly Cloudy
4:36 AM 37.4 °F - 24.8 °F 60% 30.10 in 10.0 mi Calm Calm - N/A   Overcast
4:56 AM 37.4 °F 34.9 °F 23.0 °F 56% 30.08 in 10.0 mi SE 3.5 mph - N/A   Scattered Clouds
5:16 AM 37.4 °F 33.8 °F 23.0 °F 56% 30.09 in 10.0 mi NNE 4.6 mph - N/A   Scattered Clouds
5:35 AM 37.4 °F 32.1 °F 23.0 °F 56% 30.10 in 10.0 mi ESE 6.9 mph - N/A   Overcast
5:56 AM 37.4 °F 34.9 °F 24.8 °F 60% 30.11 in 10.0 mi ENE 3.5 mph - N/A   Overcast
6:16 AM 37.4 °F - 24.8 °F 60% 30.12 in 10.0 mi Calm Calm - N/A   Overcast
6:36 AM 37.4 °F - 26.6 °F 65% 30.12 in 10.0 mi Calm Calm - N/A   Overcast
6:56 AM 35.6 °F - 24.8 °F 65% 30.12 in 10.0 mi Calm Calm - N/A   Mostly Cloudy
7:16 AM 35.6 °F - 26.6 °F 70% 30.12 in 10.0 mi Calm Calm - N/A   Scattered Clouds
7:36 AM 37.4 °F - 26.6 °F 65% 30.12 in 10.0 mi Calm Calm - N/A   Scattered Clouds
7:56 AM 41.0 °F - 24.8 °F 53% 30.12 in 10.0 mi Calm Calm - N/A   Clear
8:16 AM 46.4 °F - 24.8 °F 43% 30.12 in 10.0 mi Calm Calm - N/A   Clear
8:35 AM 50.0 °F - 26.6 °F 40% 30.12 in 10.0 mi East 6.9 mph - N/A   Clear
8:56 AM 51.8 °F - 23.0 °F 33% 30.12 in 10.0 mi Calm Calm - N/A   Clear
9:15 AM 53.6 °F - 21.2 °F 28% 30.12 in 10.0 mi Calm Calm - N/A   Clear
9:36 AM 53.6 °F - 19.4 °F 26% 30.12 in 10.0 mi WSW 3.5 mph - N/A   Scattered Clouds
9:56 AM 55.4 °F - 19.4 °F 25% 30.12 in 10.0 mi West 6.9 mph - N/A   Scattered Clouds
10:16 AM 55.4 °F - 19.4 °F 25% 30.13 in 10.0 mi NNW 11.5 mph 18.4 mph N/A   Mostly Cloudy
10:36 AM 55.4 °F - 17.6 °F 23% 30.13 in 10.0 mi West 10.4 mph - N/A   Overcast
10:55 AM 55.4 °F - 17.6 °F 23% 30.13 in 10.0 mi West 10.4 mph - N/A   Overcast
11:16 AM 57.2 °F - 17.6 °F 21% 30.13 in 10.0 mi WNW 12.7 mph 17.3 mph N/A   Mostly Cloudy
11:36 AM 59.0 °F - 19.4 °F 22% 30.12 in 10.0 mi West 15.0 mph - N/A   Mostly Cloudy
11:56 AM 59.0 °F - 19.4 °F 22% 30.12 in 10.0 mi West 12.7 mph 17.3 mph N/A   Scattered Clouds
12:16 PM 59.0 °F - 17.6 °F 20% 30.11 in 10.0 mi West 12.7 mph 21.9 mph N/A   Scattered Clouds
12:36 PM 60.8 °F - 17.6 °F 19% 30.10 in 10.0 mi WNW 10.4 mph 21.9 mph N/A   Mostly Cloudy
12:56 PM 59.0 °F - 17.6 °F 20% 30.09 in 10.0 mi West 12.7 mph 23.0 mph N/A   Scattered Clouds
1:15 PM 60.8 °F - 17.6 °F 19% 30.09 in 10.0 mi WNW 9.2 mph 21.9 mph N/A   Clear
1:36 PM 60.8 °F - 17.6 °F 19% 30.09 in 10.0 mi West 9.2 mph - N/A   Clear
1:56 PM 60.8 °F - 12.2 °F 15% 30.09 in 10.0 mi WNW 15.0 mph 23.0 mph N/A   Clear
2:16 PM 60.8 °F - 12.2 °F 15% 30.09 in 10.0 mi NW 12.7 mph 24.2 mph N/A   Clear
2:36 PM 60.8 °F - 12.2 °F 15% 30.09 in 10.0 mi NW 16.1 mph 23.0 mph N/A   Scattered Clouds
2:56 PM 59.0 °F - 14.0 °F 17% 30.09 in 10.0 mi NW 12.7 mph 24.2 mph N/A   Mostly Cloudy
3:16 PM 59.0 °F - 14.0 °F 17% 30.09 in 10.0 mi WNW 10.4 mph 20.7 mph N/A   Mostly Cloudy
3:36 PM 59.0 °F - 19.4 °F 22% 30.09 in 10.0 mi NNW 11.5 mph 17.3 mph N/A   Overcast
3:56 PM 59.0 °F - 19.4 °F 22% 30.08 in 10.0 mi NW 12.7 mph 18.4 mph N/A   Overcast
4:16 PM 57.2 °F - 19.4 °F 23% 30.09 in 10.0 mi North 12.7 mph 19.6 mph N/A   Overcast
4:35 PM 57.2 °F - 19.4 °F 23% 30.09 in 10.0 mi NW 12.7 mph 25.3 mph N/A   Overcast
4:56 PM 55.4 °F - 21.2 °F 26% 30.09 in 10.0 mi North 15.0 mph 19.6 mph N/A   Mostly Cloudy
5:16 PM 57.2 °F - 21.2 °F 25% 30.09 in 10.0 mi North 15.0 mph 19.6 mph N/A   Scattered Clouds
5:36 PM 59.0 °F - 21.2 °F 23% 30.10 in 10.0 mi NNW 8.1 mph 18.4 mph N/A   Clear
5:56 PM 59.0 °F - 21.2 °F 23% 30.10 in 10.0 mi NNW 8.1 mph - N/A   Clear
6:16 PM 59.0 °F - 21.2 °F 23% 30.10 in 10.0 mi NW 4.6 mph - N/A   Clear
6:36 PM 55.4 °F - 17.6 °F 23% 30.10 in 10.0 mi WSW 6.9 mph - N/A   Clear
6:56 PM 55.4 °F - 19.4 °F 25% 30.11 in 10.0 mi NW 6.9 mph 20.7 mph N/A   Mostly Cloudy
7:16 PM 53.6 °F - 19.4 °F 26% 30.11 in 10.0 mi NW 6.9 mph - N/A   Mostly Cloudy
7:36 PM 50.0 °F - 26.6 °F 40% 30.12 in 10.0 mi NNW 12.7 mph 20.7 mph N/A   Mostly Cloudy
7:56 PM 50.0 °F - 26.6 °F 40% 30.12 in 10.0 mi NNW 12.7 mph 17.3 mph N/A   Mostly Cloudy
8:16 PM 50.0 °F - 28.4 °F 43% 30.13 in 10.0 mi Calm Calm - N/A   Mostly Cloudy
8:36 PM 50.0 °F - 28.4 °F 43% 30.14 in 10.0 mi Calm Calm - N/A   Mostly Cloudy
8:55 PM 46.4 °F - 28.4 °F 50% 30.16 in 10.0 mi Calm Calm - N/A   Mostly Cloudy
9:16 PM 46.4 °F 44.3 °F 30.2 °F 53% 30.16 in 10.0 mi WSW 4.6 mph - N/A   Overcast
9:36 PM 44.6 °F 40.2 °F 28.4 °F 53% 30.17 in 10.0 mi NNW 8.1 mph - N/A   Mostly Cloudy
9:56 PM 44.6 °F - 28.4 °F 53% 30.17 in 10.0 mi Calm Calm - N/A   Mostly Cloudy
10:16 PM 41.0 °F - 28.4 °F 61% 30.17 in 10.0 mi Calm Calm - N/A   Mostly Cloudy
10:36 PM 41.0 °F - 28.4 °F 61% 30.17 in 10.0 mi Calm Calm - N/A   Scattered Clouds
10:56 PM 37.4 °F - 28.4 °F 70% 30.17 in 10.0 mi Calm Calm - N/A   Scattered Clouds
11:16 PM 37.4 °F - 28.4 °F 70% 30.17 in 10.0 mi Calm Calm - N/A   Mostly Cloudy
11:36 PM 37.4 °F - 30.2 °F 75% 30.17 in 10.0 mi Calm Calm - N/A   Scattered Clouds
11:56 PM 35.6 °F 32.8 °F 28.4 °F 75% 30.17 in 10.0 mi NNE 3.5 mph - N/A   Clear